ONEWEB-0041 (45148 NORAD) Tracking and Keplerian Element Data

This shows tracking and keplerian element data for the satellite.

Feedback or suggestion? Click here.




ElementValue
Catalog45148
NameONEWEB-0041
Epoch Orbit931
Epoch Day93.85812857
Epoch Year2020
RAAN145.3721
Inclination87.5645
Eccentricity0.0019273
Argument of Perigee91.8411
Mean Anonmoly268.5026
Mean Motion14.93926574
Decay Rate-0.00684915
L11 45148U 20008T 20093.85812857 -.00684915 00000-0 -68827-1 0 9997
L22 45148 87.5645 145.3721 0019273 91.8411 268.5026 14.93926574 9310

Live tracking and technical data element details for ONEWEB-0041 (NORAD 45148). ONEWEB-0041 can be tracked NOW for your location showing map with azimuth and elevation plus other details from your city location.

Track the satellite on the map from your city or location and see movement details for azimuth, elevation, latitude, longitude, range, height, and movement on the map or in text.







IsCatalogInMostPopularTable: catalog: 45148, numindb: 11
Update: records affected: 1



GetName: 45148 ONEWEB-0041

Hit Count: updated at: Mon, 06 Apr 2020 11:50:11 GMT